User: anonymous   Login
Location: Unspecified
(0.0000°N, 0.0000°E)
Time: 00:53:35
(UTC+00:00)
Language:

TBA - TO BE ASSIGNED - Orbit

View from above orbital plane
View from above orbital plane
View from above satellite
View from above satellite

Ground track
Ground track

The orbit is defined by the following mean orbital elements,

1 68645U          26144.78331284 +.00000000 +00000-0 -29371+1 0 00008
2 68645  88.9870 323.4163 0007496  71.6653 288.5316 13.57980142    00
Epoch (UTC): 24 May 2026 18:47:58
Eccentricity: 0.0007496
inclination: 88.9870°
perigee height: 1037 km
apogee height: 1049 km
right ascension of ascending node: 323.4163°
argument of perigee: 71.6653°
revolutions per day: 13.57980142
mean anomaly at epoch: 288.5316°

The dashed part of the orbit path shows where the satellite is in the earth's shadow,  

DLR